HOME
ABOUT US
SERVICES
WEATHER INFORMATION
MEDIA CENTER
CARGO SERVICES
ENTRY PASS
TOURIST INFORMATION
CAREERS
AIRPORT MANAGEMENT TEAM
CONTACT US
 
  SUBMIT
 
 
WEATHER - TAF
The most recent TAF in our system was generated at the source at:

31/10/2014 15:24:21  UTC

TAF OMFJ 310500Z 3106/0112 12008KT 6000 SCT020 TEMPO 3110/3115 7000 FEW025 BECMG 3115/3117 VRB03KT 7000 TEMPO 0100/0104 5000 HZ FEW018=

The information available here could be used for flight planning or other operational purposes. For further information on this aspect, please contact Fujairah International Airport Authority.

For further enquiries, please contact MET Section of Airport at :-
Email : met@fujairah-airport.com
Tel : +971 9 2055507
Fax : +971 9 2223149
Contat Us | Suggestions & Complaints | Links | Location Map | Employee Mail Copyright (c) 2013 Fujairah International Airport | All Rights Reserved.